Location: Blairvadach
(56.2780°N, 6.9720°W)
Time: 20:00:40
(UTC+01:00)

OTV 5 (USA 277) - Pass Details

Date: 21 April 2019
Orbit: 310 x 325 km, 54.5° (Epoch: 08 May)

Event Time Altitude Azimuth Distance (km) Brightness Sun altitude
Exits shadow 03:32:28 14° 124° (SE) 1,020 ? -17.1°
Drops below altitude 10° 03:32:56 10° 121° (ESE) 1,210 ? -17.1°
Sets 03:34:56 0° 114° (ESE) 2,040 ? -17.0°
